Location: Boleita
(10.4833°N, 66.8167°W)
Time: 01:57:35
(UTC+00:00)

Cosmos 1844 - Pass Details

Date: 08 November 2025
Orbit: 822 x 866 km, 70.9° (Epoch: 09 December)

Event Time Altitude Azimuth Distance (km) Brightness Sun altitude
Exits shadow 08:51:35 42° 252° (WSW) 1,169 4.0 -21.9°
Drops below altitude 10° 08:56:38 10° 186° (S) 2,414 6.2 -20.6°
Sets 08:59:11 0° 179° (S) 3,345 7.0 -20.0°
